Location: Chena
(64.8152°N, 147.9227°W)
Time: 13:03:51
(UTC+00:00)

N. Korean satellite - Pass Details

Date: 29 January 2021
Orbit: 451 x 503 km, 97.2° (Epoch: 28 February)

Event Time Altitude Azimuth Distance (km) Brightness Sun altitude
Rises 15:25:06 0° 19° (NNE) 2,525 10.5 -20.2°
Reaches altitude 10° 15:27:13 10° 24° (NNE) 1,635 9.5 -20.0°
Maximum altitude 15:30:38 50° 101° (ESE) 599 7.4 -19.6°
Drops below altitude 10° 15:33:59 10° 179° (S) 1,601 9.2 -19.3°
Sets 15:36:03 0° 184° (S) 2,466 10.1 -19.1°
